#timestamp,LO_Frequency,Hit,StdDev 
1567170015.3,286046997.4,N
1567170035.1,286046997.5,N
1567170055.9,286046994.9,Y
1567170075.7,286046996.7,P
1567170095.5,286046997.8,N
1567170115.4,286046997.7,N
1567170135.2,286046997.3,Y
1567170155.0,286046999.0,P
1567170156.0,286046999.0,N
1567170175.8,286046999.1,N
1567170195.6,286046998.8,N
1567170215.5,286046999.3,N
1567170235.3,286046999.0,N
1567170255.1,286046998.9,N
1567170275.9,286046999.0,N
1567170295.7,286046998.6,Y
1567170315.6,286047000.1,P
1567170335.4,286047000.7,N
1567170355.2,286047000.4,N
1567170375.1,286047000.9,N
1567170376.0,286047000.9,N
1567170395.8,286047000.3,N
1567170415.6,286047000.7,N
1567170435.5,286047000.3,N
1567170455.3,286047000.4,N
1567170475.2,286047001.0,N
1567170495.9,286047000.7,N
1567170515.7,286047001.1,N
1567170535.6,286047000.8,N
1567170555.4,286047000.3,N
1567170575.2,286047000.0,N
1567170595.1,286047002.8,Y
1567170596.0,286047002.8,P
1567170615.8,286046998.2,N
1567170635.7,286047001.2,N
1567170655.5,286047000.9,N
1567170675.3,286047001.1,N
1567170695.2,286047001.1,N
1567170715.0,286047001.1,N
1567170715.9,286047001.1,N
1567170735.8,286046998.3,N
1567170755.6,286047000.5,N
1567170775.4,286046999.8,N
1567170795.3,286047002.8,N
1567170815.1,286047001.0,N
1567170835.8,286047002.0,N
1567170855.7,286047002.1,N
1567170875.5,286047002.7,N
1567170895.4,286047002.8,N
1567170915.2,286047000.3,N
1567170935.0,286047002.4,N
1567170935.9,286047002.4,N
1567170955.8,286047000.0,N
1567170975.6,286047002.7,N
1567170995.4,286047002.3,N
1567171015.3,286047002.0,N
1567171035.1,286047002.4,N
1567171055.9,286047001.9,N
1567171075.7,286047001.3,N
1567171095.5,286047001.3,N
1567171115.4,286047001.7,N
1567171135.2,286047001.9,N
1567171155.0,286047001.3,N
1567171155.9,286047001.3,N
1567171175.8,286047001.3,N
1567171195.6,286047003.9,Y
1567171215.5,286047002.5,P
1567171235.3,286047002.6,P
1567171255.1,286047001.5,N
1567171275.9,286047002.1,Y
1567171295.7,286047000.6,P
1567171315.6,286047000.3,N
1567171335.4,286047000.6,N
1567171355.2,286046999.8,N
1567171375.1,286047002.7,Y
1567171376.0,286047002.7,P
1567171395.8,286047000.8,N
1567171415.7,286046998.3,N
1567171435.5,286046999.5,N
1567171455.3,286046996.6,N
1567171475.2,286046997.0,N
1567171495.0,286046997.3,N
1567171495.9,286046997.3,N
1567171515.8,286046997.0,N
1567171535.6,286046999.6,N
1567171555.4,286046998.5,N
1567171575.3,286046998.5,N
1567171595.1,286047001.2,N
1567171615.8,286046998.6,N
1567171635.7,286046998.8,N
1567171655.5,286046999.1,N
1567171675.4,286046999.5,N
1567171695.2,286046997.7,N
1567171715.0,286046998.9,N
1567171715.9,286046998.9,N
1567171735.8,286046998.1,N
1567171755.6,286047000.7,N
1567171775.5,286046999.0,N
1567171795.3,286046999.2,N
1567171815.1,286046998.9,N
1567171835.9,286046998.1,N
1567171855.7,286046998.1,N
1567171875.5,286047001.0,N
1567171895.4,286046998.5,N
1567171915.2,286046998.3,N
1567171935.1,286046998.5,N
1567171936.0,286046998.5,N
1567171955.1,286046998.3,N
1567171975.9,286047000.5,N
1567171995.7,286047000.8,N
1567172015.5,286047000.9,N
1567172035.4,286046998.1,N
1567172055.2,286046998.4,N
1567172075.0,286046998.4,N
1567172075.9,286046998.4,N
1567172095.8,286046998.6,N
1567172115.6,286046998.9,N
1567172135.5,286047001.0,N
1567172155.3,286047000.2,N
1567172175.1,286047002.7,N
1567172195.9,286047000.3,N
1567172215.7,286047000.9,N
1567172235.6,286047000.2,N
1567172255.4,286047002.7,N
1567172275.2,286047000.4,N
1567172295.1,286047000.6,N
1567172296.0,286047000.6,N
1567172315.8,286047000.3,N
1567172335.6,286047000.8,N
1567172355.5,286047000.5,N
1567172375.3,286047002.8,N
1567172395.2,286047002.4,N
1567172415.9,286046999.8,N
1567172435.7,286047000.4,N
1567172455.6,286046999.7,N
1567172475.4,286047002.2,N
1567172495.2,286047002.5,N
1567172515.1,286047001.6,N
1567172516.0,286047001.6,N
1567172535.8,286047002.4,N
1567172555.7,286047002.6,N
1567172575.5,286047002.4,N
1567172595.3,286047000.2,N
1567172615.2,286047002.7,N
1567172635.0,286047000.2,N
1567172635.9,286047000.2,N
1567172655.8,286046999.9,N
1567172675.6,286047000.2,N
1567172695.4,286047000.2,N
1567172715.3,286046999.7,N
1567172735.1,286046999.9,N
1567172755.9,286047000.0,N
1567172775.7,286047000.7,N
1567172795.5,286047001.1,N
1567172815.4,286047001.1,N
1567172835.2,286047000.0,N
1567172855.0,286047000.9,N
1567172855.9,286047000.9,N
1567172875.8,286046998.9,N
1567172895.6,286046998.7,N
1567172915.3,286046996.5,Y
1567172935.1,286046996.5,P
1567172955.9,286046999.1,N
1567172975.7,286046997.1,N
1567172995.6,286046997.7,N
1567173015.4,286046996.5,N
1567173035.2,286046996.9,N
1567173055.1,286046997.2,N
1567173056.0,286046997.2,N
1567173075.8,286046997.9,N
1567173095.7,286046998.0,N
1567173115.5,286046995.3,Y
1567173135.3,286046999.6,P
1567173155.2,286046996.7,P
1567173175.0,286046999.4,N
1567173175.9,286046999.4,N
1567173195.8,286046999.2,N
1567173215.6,286046999.3,N
1567173235.4,286046998.5,N
1567173255.3,286046998.7,N
1567173275.1,286046998.8,N
1567173295.8,286046998.4,N
1567173315.7,286046998.7,N
1567173335.5,286046998.1,N
1567173355.4,286046998.5,N
1567173375.2,286046998.7,N
1567173395.0,286046999.1,N
1567173395.9,286046999.1,N
1567173415.8,286046998.7,N
1567173435.6,286046999.4,N
1567173455.4,286046999.3,N
1567173475.3,286046998.9,N
1567173495.1,286046996.5,Y
1567173515.9,286046999.1,P
1567173535.7,286046999.2,P
1567173555.5,286046998.8,P
1567173575.4,286046999.3,Y
1567173595.6,286047000.0,P
